Wind_Speed
7 7 6 5 4 3 3 2 2 1 1 2 2 1 2 2 1 1 1 1 2 2 3 3 4 5 6 6 7 8 8 8 8 7 7 7 7 7 7 7 7 6 6
8 7 6 5 4 3 2 1 1 0 1 1 1 1 2 2 2 2 1 1 2 2 2 3 3 4 6 6 6 7 8 8 9 8 8 8 8 8 7 8 8 8 7
9 7 6 6 5 4 3 2 1 0 1 1 1 2 2 2 2 2 3 3 2 2 2 2 2 3 5 6 6 7 8 8 8 8 9 9 10 9 9 8 9 9 8
9 9 8 7 6 5 4 3 2 1 1 1 2 2 3 2 3 3 4 4 3 3 2 2 2 3 3 4 5 6 7 8 8 9 9 10 10 11 10 10 10 9 9
10 10 8 7 6 5 4 3 2 1 1 2 2 2 3 3 3 4 5 5 4 4 3 2 2 3 3 3 4 5 6 7 8 9 9 10 10 11 11 11 11 10 10
11 10 9 8 7 6 4 3 3 2 2 2 2 2 2 2 3 4 4 4 4 4 4 3 2 2 2 2 3 4 5 6 6 8 9 10 10 10 11 11 12 12 12
12 11 10 9 8 7 5 4 4 3 3 3 3 3 2 3 3 3 3 3 4 4 4 4 3 2 2 2 2 3 4 4 5 6 7 8 9 10 11 12 12 12 13
13 12 11 10 9 7 6 5 4 4 4 3 3 3 3 3 3 3 3 3 3 3 3 3 3 3 2 2 1 2 2 3 4 5 6 7 9 9 10 10 11 12 13
14 13 12 10 10 8 7 6 5 5 5 4 4 4 3 3 3 3 3 2 2 2 2 3 2 2 2 1 1 1 1 2 4 5 6 7 9 9 10 10 11 12 13
15 14 12 11 11 10 9 8 7 6 6 6 5 4 3 3 2 2 2 2 2 2 2 2 1 1 0 0 1 2 2 3 4 5 6 7 8 9 10 10 11 12 13
15 15 13 12 12 11 10 9 9 8 7 7 5 4 4 3 2 2 1 1 1 0 1 1 1 1 1 2 2 3 3 4 4 5 6 7 8 8 9 10 11 11 13
16 15 14 13 13 13 12 11 10 10 9 8 7 6 5 4 3 3 2 2 2 2 2 3 3 3 3 3 3 4 5 6 6 7 7 8 9 10 10 11 12 12 12
17 16 15 14 14 13 13 12 12 12 11 10 9 7 7 6 5 5 4 4 4 4 5 5 5 5 6 6 6 6 7 7 8 8 9 9 10 11 12 13 13 14 14
18 18 17 16 15 14 14 14 13 13 13 12 11 10 9 9 8 7 7 7 7 7 7 7 8 8 8 8 9 9 9 10 10 11 11 11 12 12 13 14 15 16 16
19 19 18 16 15 15 15 15 14 14 14 13 12 12 11 11 11 11 11 10 10 10 10 10 11 11 12 12 12 12 12 13 13 14 14 15 15 15 15 16 16 17 18
20 20 18 17 16 16 16 16 15 15 15 15 15 14 14 14 14 14 14 13 13 13 14 14 14 14 15 15 16 16 17 17 17 17 18 18 18 19 19 19 20 20 21
21 21 19 18 17 17 17 17 17 17 17 17 17 17 16 16 17 17 17 17 17 16 16 17 17 18 18 19 19 20 20 21 21 21 21 22 22 22 23 22 23 23 24
20 20 20 19 18 18 18 18 19 19 19 19 19 19 19 19 19 19 19 20 20 20 20 20 21 21 22 22 22 23 23 24 24 24 25 25 25 26 26 26 27 27 27
20 20 20 20 20 20 20 20 20 20 20 20 21 21 21 22 22 22 22 22 23 23 23 24 24 25 25 26 26 26 26 27 27 28 28 29 29 29 30 30 31 31 31
19 20 20 20 20 20 20 21 21 20 21 21 22 23 24 24 24 24 25 25 25 25 26 27 28 28 29 30 30 30 30 31 31 32 32 32 32 33 33 34 34 35 35
18 19 20 20 20 20 21 21 21 21 22 22 23 23 24 25 25 26 26 27 27 28 29 30 30 30 31 32 32 32 33 33 33 34 35 35 36 36 36 37 38 38 38
18 20 21 21 20 20 21 22 22 23 23 23 23 23 24 25 26 26 27 29 30 30 31 32 32 32 33 34 35 35 35 35 35 37 38 38 39 40 41 41 42 42 42
19 19 19 20 20 21 22 22 23 24 25 26 26 25 26 26 27 28 29 30 31 31 32 33 34 35 35 36 37 37 38 38 38 39 41 41 43 43 44 44 45 46 46
19 19 20 20 22 23 23 24 25 26 26 26 27 27 27 28 29 30 31 32 33 34 35 36 37 37 38 38 39 39 40 41 41 42 44 44 44 45 46 46 48 48 48
20 20 21 22 23 24 25 26 26 27 27 28 28 29 30 30 31 32 33 35 36 37 37 38 39 39 40 41 41 42 43 44 44 45 46 47 46 46 46 46 48 49 50
21 22 23 24 24 24 26 27 28 29 29 30 30 31 32 33 34 35 36 38 39 39 39 40 40 41 42 43 44 45 46 46 47 47 48 49 49 50 49 49 50 51 51
Wind_Direction
239 243 253 250 242 247 249 258 278 287 329 18 41 55 48 33 42 354 293 248 199 187 197 213 220 218 212 212 214 216 217 217 214 218 221 220 220 222 223 226 230 233 235
227 235 236 227 226 222 223 232 259 316 12 52 71 73 65 55 60 51 80 122 154 173 193 210 213 214 211 211 215 219 219 223 223 224 226 225 225 225 227 230 233 236 239
222 223 213 215 211 205 206 206 192 108 59 85 88 90 90 89 82 80 92 101 113 129 165 188 194 202 205 213 220 221 221 224 224 226 231 232 231 231 234 236 239 242 242
209 204 205 206 201 197 197 200 191 187 111 115 120 111 103 101 94 93 92 90 94 104 120 150 164 177 189 208 221 224 224 226 230 233 236 233 234 237 239 241 243 244 244
200 198 200 197 194 194 199 204 199 181 154 134 130 119 106 104 103 101 95 93 92 95 103 122 142 165 182 201 212 223 225 229 234 236 237 235 235 239 239 242 244 245 246
198 197 197 194 195 198 203 206 203 187 166 146 133 119 114 111 107 105 101 97 92 87 90 104 126 147 171 189 207 224 228 229 234 237 237 236 235 238 241 244 247 248 248
198 199 199 198 199 202 204 206 206 199 178 158 141 131 126 117 112 105 105 100 93 85 81 86 101 119 142 171 193 214 218 222 229 233 235 236 237 241 245 248 250 251 251
199 199 200 199 200 204 206 202 198 195 187 174 159 145 135 126 119 110 110 106 94 82 79 82 86 93 105 126 160 199 217 226 232 239 241 243 243 244 247 248 250 252 253
201 201 204 203 204 209 209 204 199 197 191 180 168 155 143 129 123 118 113 105 85 72 73 81 89 87 88 100 170 220 232 237 242 246 249 249 249 249 250 252 253 255 256
204 205 207 208 208 211 212 212 208 202 195 189 182 172 162 154 145 129 115 110 90 68 65 75 94 92 39 299 270 262 251 254 260 255 252 255 255 254 256 257 257 259 260
206 205 207 213 216 217 217 216 214 210 205 200 198 192 187 188 187 180 167 154 124 22 357 350 348 336 316 297 278 267 265 264 265 267 263 262 260 257 258 260 262 264 264
206 206 210 215 218 221 222 220 218 215 212 210 209 210 214 220 224 226 230 233 243 259 281 292 298 302 304 304 295 284 278 275 273 274 271 268 266 263 263 264 264 265 266
207 209 211 215 218 220 222 223 224 223 222 220 221 224 228 234 240 247 254 260 265 271 278 283 288 290 293 294 292 289 288 285 281 279 279 277 275 270 267 266 266 266 266
210 213 217 220 224 224 225 227 229 230 229 231 232 235 237 241 246 252 260 268 273 277 280 281 283 285 288 289 288 288 287 285 284 282 282 280 280 277 273 270 269 268 267
214 218 220 224 224 226 227 231 233 234 234 237 241 244 247 251 256 261 266 270 273 276 279 280 281 282 283 284 284 285 284 282 281 279 278 277 277 278 276 275 274 272 269
217 219 221 224 227 228 231 234 237 239 240 243 247 252 255 260 264 266 268 271 273 275 278 279 281 282 283 283 283 283 282 280 280 279 277 276 275 275 275 276 276 275 273
219 220 220 224 229 232 235 238 242 244 245 247 250 255 259 263 267 269 270 271 273 274 276 278 279 282 283 282 282 283 282 281 279 279 279 278 276 275 274 274 274 274 273
220 222 224 227 233 238 241 243 245 246 249 251 254 257 261 265 268 270 272 274 275 275 277 278 280 281 282 283 283 282 281 280 279 278 278 278 277 276 274 273 273 273 272
222 222 226 232 237 242 245 247 248 250 252 255 258 260 263 266 270 272 274 275 277 278 279 279 280 281 282 282 282 280 279 279 278 277 277 277 277 276 275 274 273 273 272
227 227 230 237 240 243 246 247 248 251 253 257 260 262 263 267 270 272 273 274 276 279 281 282 282 282 282 283 281 279 278 278 277 277 277 277 277 276 275 274 273 272 271
233 231 234 240 242 244 246 246 248 251 255 258 262 264 265 267 269 272 274 275 276 278 280 282 283 283 282 283 282 280 279 279 279 279 278 278 277 276 275 274 274 273 271
238 240 241 243 244 244 246 247 250 254 256 260 263 265 266 268 270 273 275 277 278 279 280 281 282 282 282 282 282 281 280 279 279 278 277 277 277 277 276 274 274 273 272
242 243 244 244 244 246 250 252 255 257 260 262 266 267 268 270 272 275 277 278 279 280 282 283 284 284 284 283 282 281 280 279 278 277 276 276 276 276 274 274 273 272 271
245 245 248 249 250 253 257 258 260 263 265 267 269 270 270 271 273 275 278 279 280 281 282 282 283 284 284 283 283 282 281 280 279 278 278 278 276 276 275 273 272 271 270
250 252 254 256 258 260 262 262 263 266 267 269 271 273 273 273 275 276 278 280 281 281 281 282 282 282 282 282 282 282 281 281 279 279 279 279 277 276 275 275 273 272 271
256 258 258 259 261 263 264 265 264 266 268 271 273 275 277 278 279 280 280 281 281 281 281 282 282 283 283 283 283 283 282 281 280 279 279 279 278 277 276 275 273 272 270
Height
5887 5888 5888 5888 5888 5888 5888 5888 5887 5887 5887 5886 5886 5886 5885 5885 5884 5884 5884 5884 5884 5884 5884 5885 5885 5885 5886 5886 5887 5888 5890 5891 5892 5893 5893 5894 5894 5895 5895 5896 5896 5897 5897
5885 5886 5887 5887 5888 5888 5888 5887 5887 5887 5887 5887 5886 5886 5886 5885 5884 5884 5884 5884 5883 5883 5884 5884 5884 5884 5885 5885 5886 5887 5888 5889 5890 5891 5892 5893 5893 5894 5894 5895 5895 5896 5896
5884 5885 5886 5887 5887 5887 5888 5888 5887 5887 5887 5887 5886 5886 5886 5885 5885 5884 5884 5884 5883 5883 5883 5883 5883 5883 5884 5884 5885 5886 5887 5888 5889 5890 5890 5891 5892 5892 5893 5894 5894 5894 5895
5882 5884 5885 5886 5886 5887 5887 5887 5887 5887 5887 5887 5887 5886 5886 5886 5885 5885 5884 5884 5883 5883 5883 5883 5883 5883 5883 5884 5884 5885 5886 5886 5887 5888 5889 5889 5890 5891 5891 5892 5892 5893 5893
5881 5883 5884 5885 5886 5887 5887 5887 5887 5887 5887 5887 5887 5887 5886 5886 5886 5885 5885 5884 5884 5883 5883 5882 5882 5883 5883 5883 5883 5884 5884 5885 5886 5886 5887 5887 5888 5889 5889 5890 5891 5891 5891
5880 5882 5883 5884 5886 5886 5887 5887 5887 5887 5887 5887 5887 5887 5887 5886 5886 5886 5885 5885 5884 5883 5883 5883 5882 5882 5883 5883 5883 5883 5883 5884 5884 5884 5885 5885 5886 5887 5887 5888 5888 5889 5889
5878 5880 5882 5884 5885 5886 5886 5886 5887 5887 5887 5887 5887 5887 5887 5887 5886 5886 5885 5885 5885 5884 5884 5883 5883 5882 5882 5882 5882 5882 5882 5883 5883 5883 5883 5884 5884 5885 5885 5886 5886 5886 5886
5877 5879 5881 5882 5884 5885 5886 5886 5886 5887 5887 5887 5887 5887 5887 5888 5887 5886 5886 5885 5885 5885 5884 5884 5883 5883 5882 5882 5882 5882 5882 5882 5882 5882 5882 5882 5883 5883 5883 5883 5883 5884 5884
5875 5877 5879 5881 5882 5884 5885 5885 5886 5886 5887 5887 5887 5888 5887 5887 5887 5887 5886 5886 5886 5885 5885 5884 5883 5883 5882 5882 5882 5881 5881 5881 5881 5881 5881 5881 5881 5881 5881 5881 5881 5881 5881
5874 5876 5877 5879 5881 5882 5883 5884 5885 5886 5886 5887 5887 5887 5887 5887 5887 5887 5887 5886 5886 5885 5885 5884 5884 5883 5882 5882 5882 5881 5881 5880 5880 5880 5879 5879 5879 5879 5879 5879 5879 5878 5878
5872 5874 5876 5877 5879 5881 5882 5883 5884 5885 5885 5886 5886 5886 5887 5887 5887 5887 5887 5887 5886 5886 5885 5884 5884 5883 5882 5881 5881 5880 5880 5879 5879 5878 5878 5878 5877 5877 5877 5876 5876 5876 5875
5870 5872 5874 5875 5877 5879 5880 5881 5882 5883 5884 5885 5885 5886 5886 5886 5886 5886 5886 5886 5886 5885 5885 5884 5883 5882 5882 5881 5880 5879 5879 5878 5877 5877 5876 5876 5875 5874 5874 5874 5873 5873 5872
5867 5870 5872 5873 5875 5876 5878 5879 5881 5881 5882 5883 5884 5884 5885 5885 5885 5885 5885 5885 5884 5884 5883 5883 5882 5881 5880 5879 5879 5878 5877 5876 5876 5875 5874 5873 5872 5872 5871 5870 5870 5869 5869
5864 5867 5869 5871 5873 5874 5876 5877 5878 5879 5880 5881 5881 5882 5883 5883 5883 5883 5883 5883 5882 5882 5881 5881 5880 5879 5878 5878 5877 5876 5875 5874 5873 5872 5871 5871 5870 5869 5868 5867 5866 5866 5865
5862 5864 5866 5869 5870 5871 5873 5874 5875 5877 5877 5878 5879 5879 5880 5880 5881 5881 5881 5881 5880 5879 5879 5878 5877 5877 5876 5875 5874 5873 5872 5871 5870 5869 5868 5867 5866 5865 5864 5863 5862 5861 5861
5858 5861 5863 5865 5867 5869 5870 5871 5872 5873 5874 5875 5876 5876 5877 5877 5877 5877 5877 5877 5877 5876 5875 5874 5874 5873 5872 5871 5870 5869 5868 5867 5866 5865 5864 5862 5861 5860 5859 5858 5858 5857 5856
5855 5857 5860 5862 5864 5865 5867 5868 5869 5870 5870 5871 5872 5872 5873 5873 5873 5873 5873 5872 5872 5872 5871 5870 5869 5868 5867 5866 5865 5864 5863 5862 5860 5859 5858 5857 5856 5855 5854 5853 5852 5851 5850
5851 5854 5856 5858 5860 5861 5863 5864 5864 5865 5866 5867 5867 5868 5868 5868 5868 5868 5867 5867 5866 5866 5866 5865 5864 5863 5861 5860 5859 5858 5856 5855 5854 5853 5851 5850 5849 5848 5847 5846 5845 5844 5843
5848 5850 5852 5854 5855 5856 5858 5859 5860 5861 5861 5862 5862 5862 5863 5863 5862 5862 5862 5861 5860 5859 5859 5858 5857 5856 5855 5853 5852 5851 5849 5848 5847 5845 5844 5843 5841 5840 5839 5838 5837 5835 5834
5844 5846 5848 5849 5850 5851 5852 5853 5854 5855 5856 5856 5856 5857 5857 5856 5856 5856 5855 5854 5853 5852 5852 5851 5849 5848 5847 5845 5844 5842 5841 5839 5838 5837 5835 5834 5832 5831 5830 5829 5827 5826 5825
5841 5842 5843 5844 5845 5846 5846 5847 5848 5849 5850 5850 5850 5850 5850 5850 5850 5849 5848 5847 5846 5845 5844 5842 5841 5839 5838 5836 5834 5833 5831 5830 5829 5827 5826 5824 5823 5821 5820 5818 5817 5816 5814
5837 5838 5839 5840 5840 5841 5841 5842 5843 5844 5844 5844 5844 5844 5844 5843 5842 5842 5841 5840 5839 5837 5835 5834 5832 5830 5828 5826 5824 5823 5821 5820 5819 5817 5814 5813 5811 5810 5808 5807 5805 5804 5802
5833 5834 5835 5836 5836 5837 5837 5837 5838 5838 5838 5838 5838 5837 5837 5836 5835 5834 5833 5832 5830 5828 5827 5825 5823 5821 5818 5816 5814 5812 5810 5808 5807 5805 5803 5802 5799 5797 5795 5793 5792 5790 5789
5829 5829 5830 5830 5831 5831 5832 5832 5832 5832 5832 5831 5831 5831 5830 5828 5827 5826 5824 5823 5821 5819 5817 5815 5813 5810 5808 5805 5803 5801 5799 5797 5795 5792 5789 5788 5786 5784 5782 5779 5777 5776 5774
5823 5824 5825 5825 5825 5826 5825 5825 5825 5825 5825 5824 5824 5823 5821 5820 5819 5817 5815 5813 5811 5809 5806 5804 5802 5799 5796 5793 5791 5788 5786 5784 5782 5779 5776 5774 5772 5770 5768 5766 5763 5760 5759
5818 5818 5819 5819 5819 5819 5819 5818 5818 5818 5817 5816 5815 5814 5812 5811 5809 5807 5805 5803 5800 5798 5795 5793 5790 5787 5784 5781 5778 5775 5772 5769 5767 5765 5761 5758 5756 5754 5753 5751 5748 5745 5743